METEOR 2-11 DEB, 60008

Orbit data source: Space-Track

METEOR 2-11 DEB, 60008 is space debris in LEO originally from a launch on Thu, 05 Jul 1984 UTC launched from the Plesetsk Missile And Space Complex (PKMTR). Debris objects in space refer to the collection of defunct objects orbiting the Earth. Examples of debris include non-operational satellites, rocket bodies, and fragments generated from explosions, collisions, or faulty payload assembly.

Loading next visibility...
Identifier
60008, 1984-072AD
Orbit
LEO
Country
Flag of CISCIS
Related business
Manufacturer
Unknown
Mission
Spacecraft
Bus & Motor
Unknown
Mass
Unknown
Launch date (UTC)
1984-07-05 (42 years ago)
Launch vehicle
Unknown
Launch site
Plesetsk Missile And Space Complex (PKMTR)
Object type
Payload
Rocket body
Debris
Shape & HBR
Unknown shape, 0.1 m
Radar Cross Section
Medium (>0.1 m² and <1 m²)

Expand to show TLE details & history
Last TLE update: 1 week ago

TLE from 1 week ago
0 METEOR 2-11 DEB
1 60008U 84072AD  26201.98337970 -.00000023  00000-0 -22908-4 0  9994
2 60008  82.5105 294.0258 0036224 119.3951 241.0848 14.08597038638934
Epoch: 2026-07-20T23:36Z
TLE epoch observation values (Epoch: 2026-07-20T23:36:04.006Z)
Latitude
0.00006°
Longitude
1.24952°
Altitude
879.872 km
Speed
7.406 km/s
True Right ascension
19h 36m 06s
True Declination
0° 00' 00"
Sunlit
Object was in full shadow at epoch
Visualization orbit readout
Latitude
Unknown
Longitude
Unknown
Altitude
Unknown
Speed
Unknown
Apparent Right ascension
Unknown
Apparent Declination
Unknown
Sunlit
N/A
Visualization observer readout
Local Sidereal Time
06:24:30
Azimuth
Unknown
Elevation
Unknown
Doppler factor
Unknown
Orbital elements
Apogee altitude
887.52 km
Perigee altitude
835.072 km
Semi-major axis
7,239.433 km
Eccentricity
0.00362
Inclination
82.5105°
RAAN
294.0258°
Arg. of periapsis
119.3951°
True anomaly
240.72225°
Mean anomaly
241.0848°
Eccentric anomaly
240.90344°
Mean motion
3.5236 °/min
Orbital period
102.17 mins
BSTAR
-0.000022908
Loading maneuver chart data...
Computing Atmospheric mass density...
Loading historical data...
Loading historical data...
Loading historical data...
Loading historical data...
Loading historical data...
Loading historical data...
Loading historical data...

Documentation

Showing up to 5 results
|